When you browse on this site, cookies collect data to enhance your experience and personalize the content and advertising you see.
Visit our Privacy Policy to learn more. By continuing to use the site, you agree to this use of cookies and data.
  • In Portugal
  • List of Countries
  • For 7 days
  • Water Temperature
  • Weather Map
  • Weather Widgets
  • user-avatar
    Login

    Hourly Weather Stojanowice

    Today, 15 October, Tuesday

    Time Temperature Precipitation Wind Pressure Humidity
    00:00 +14°C° 0 mm 2 mps 744 mmHg 82%
    01:00 +13°C° 0 mm 2 mps 744 mmHg 83%
    02:00 +13°C° 0 mm 2 mps 743 mmHg 83%
    03:00 +13°C° 0 mm 2 mps 743 mmHg 82%
    04:00 +13°C° 0 mm 2 mps 742 mmHg 82%
    05:00 +13°C° 0 mm 2 mps 742 mmHg 81%
    06:00 +13°C° 0 mm 2 mps 743 mmHg 79%
    07:00 +14°C° 0 mm 2 mps 743 mmHg 78%
    08:00 +16°C° 0 mm 2 mps 742 mmHg 71%
    09:00 +17°C° 0 mm 3 mps 742 mmHg 64%
    10:00 +19°C° 0 mm 3 mps 742 mmHg 58%
    11:00 +21°C° 0 mm 3 mps 741 mmHg 54%
    12:00 +24°C° 0 mm 3 mps 741 mmHg 50%
    13:00 +25°C° 0 mm 3 mps 741 mmHg 46%
    14:00 +24°C° 0 mm 3 mps 741 mmHg 50%
    15:00 +22°C° 0 mm 3 mps 740 mmHg 55%
    16:00 +21°C° 0 mm 3 mps 740 mmHg 59%
    17:00 +20°C° 0 mm 3 mps 740 mmHg 63%
    18:00 +18°C° 0 mm 3 mps 740 mmHg 66%
    19:00 +17°C° 0 mm 4 mps 740 mmHg 69%
    20:00 +17°C° 0 mm 4 mps 739 mmHg 71%
    21:00 +15°C° 0 mm 4 mps 739 mmHg 72%
    22:00 +16°C° 0 mm 3 mps 739 mmHg 74%
    23:00 +14°C° 0 mm 3 mps 739 mmHg 74%

    Tomorrow, 16 October, Wednesday

    Time Temperature Precipitation Wind Pressure Humidity
    00:00 +14°C° 0 mm 3 mps 739 mmHg 75%
    01:00 +15°C° 0 mm 2 mps 739 mmHg 76%
    02:00 +14°C° 0 mm 3 mps 739 mmHg 76%
    03:00 +13°C° 0 mm 3 mps 739 mmHg 76%
    04:00 +13°C° 0 mm 3 mps 739 mmHg 76%
    05:00 +13°C° 0 mm 3 mps 740 mmHg 76%
    06:00 +13°C° 0 mm 3 mps 740 mmHg 77%
    07:00 +14°C° 0 mm 3 mps 740 mmHg 77%
    08:00 +15°C° 0 mm 4 mps 741 mmHg 74%
    09:00 +15°C° 0 mm 5 mps 742 mmHg 71%
    10:00 +16°C° 0 mm 6 mps 742 mmHg 68%
    11:00 +17°C° 0 mm 6 mps 742 mmHg 64%
    12:00 +17°C° 0 mm 6 mps 743 mmHg 61%
    13:00 +19°C° 0 mm 6 mps 743 mmHg 58%
    14:00 +17°C° 0 mm 5 mps 743 mmHg 60%
    15:00 +17°C° 0 mm 4 mps 742 mmHg 61%
    16:00 +16°C° 0 mm 3 mps 742 mmHg 63%
    17:00 +14°C° 0 mm 3 mps 743 mmHg 66%
    18:00 +14°C° 0 mm 2 mps 743 mmHg 68%
    19:00 +13°C° 0 mm 2 mps 743 mmHg 70%
    20:00 +12°C° 0 mm 2 mps 743 mmHg 72%
    21:00 +12°C° 0 mm 2 mps 744 mmHg 74%
    22:00 +12°C° 0 mm 2 mps 744 mmHg 77%
    23:00 +10°C° 0 mm 2 mps 744 mmHg 78%

    Day after tomorrow, 17 October, Thursday

    Time Temperature Precipitation Wind Pressure Humidity
    00:00 +10°C° 0 mm 2 mps 744 mmHg 80%
    01:00 +11°C° 0 mm 1 mps 744 mmHg 81%
    02:00 +9°C° 0 mm 2 mps 744 mmHg 82%
    03:00 +9°C° 0 mm 2 mps 744 mmHg 83%
    04:00 +9°C° 0 mm 2 mps 744 mmHg 85%
    05:00 +9°C° 0 mm 2 mps 744 mmHg 84%
    06:00 +10°C° 0 mm 2 mps 744 mmHg 83%
    07:00 +11°C° 0 mm 1 mps 744 mmHg 83%
    08:00 +13°C° 0 mm 1 mps 745 mmHg 73%
    09:00 +15°C° 0 mm 2 mps 745 mmHg 63%
    10:00 +17°C° 0 mm 2 mps 745 mmHg 53%
    11:00 +18°C° 0 mm 2 mps 745 mmHg 49%
    12:00 +19°C° 0 mm 2 mps 745 mmHg 46%
    13:00 +21°C° 0 mm 1 mps 745 mmHg 42%
    14:00 +20°C° 0 mm 1 mps 745 mmHg 46%
    15:00 +19°C° 0 mm 1 mps 745 mmHg 51%
    16:00 +16°C° 0 mm 0 mps 745 mmHg 55%
    17:00 +16°C° 0 mm 1 mps 745 mmHg 56%
    18:00 +15°C° 0 mm 1 mps 745 mmHg 58%
    19:00 +14°C° 0 mm 1 mps 745 mmHg 60%
    20:00 +14°C° 0 mm 1 mps 745 mmHg 60%
    21:00 +14°C° 0 mm 1 mps 745 mmHg 61%
    22:00 +14°C° 0 mm 1 mps 745 mmHg 61%
    23:00 +14°C° 0 mm 1 mps 745 mmHg 62%

    18 October, Friday

    Time Temperature Precipitation Wind Pressure Humidity
    00:00 +14°C° 0 mm 1 mps 745 mmHg 63%
    01:00 +14°C° 0 mm 1 mps 745 mmHg 64%
    02:00 +14°C° 0 mm 1 mps 745 mmHg 66%
    03:00 +14°C° 0 mm 1 mps 745 mmHg 67%
    04:00 +13°C° 0 mm 1 mps 745 mmHg 69%
    05:00 +13°C° 0 mm 1 mps 745 mmHg 69%
    06:00 +14°C° 0 mm 1 mps 745 mmHg 70%
    07:00 +14°C° 0 mm 1 mps 745 mmHg 70%
    08:00 +15°C° 0 mm 1 mps 745 mmHg 68%
    09:00 +15°C° 0 mm 1 mps 745 mmHg 66%
    10:00 +15°C° 0 mm 0 mps 746 mmHg 63%
    11:00 +18°C° 0 mm 1 mps 745 mmHg 61%
    12:00 +19°C° 0 mm 1 mps 745 mmHg 59%
    13:00 +20°C° 0 mm 1 mps 745 mmHg 57%
    14:00 +19°C° 0 mm 1 mps 745 mmHg 61%
    15:00 +19°C° 0 mm 1 mps 745 mmHg 64%
    16:00 +18°C° 0 mm 1 mps 744 mmHg 67%
    17:00 +18°C° 0 mm 1 mps 745 mmHg 70%
    18:00 +16°C° 0 mm 1 mps 745 mmHg 72%
    19:00 +15°C° 0 mm 1 mps 745 mmHg 75%
    20:00 +15°C° 0 mm 1 mps 745 mmHg 76%
    21:00 +15°C° 0 mm 1 mps 745 mmHg 77%
    22:00 +14°C° 0 mm 1 mps 745 mmHg 79%
    23:00 +14°C° 0 mm 1 mps 745 mmHg 81%

    19 October, Saturday

    Time Temperature Precipitation Wind Pressure Humidity
    00:00 +12°C° 0 mm 0 mps 745 mmHg 83%
    01:00 +12°C° 0 mm 0 mps 745 mmHg 86%
    02:00 +12°C° 0 mm 0 mps 745 mmHg 86%
    03:00 +11°C° 0 mm 0 mps 745 mmHg 87%
    04:00 +12°C° 0 mm 1 mps 745 mmHg 88%
    05:00 +12°C° 0 mm 1 mps 745 mmHg 87%
    06:00 +13°C° 0 mm 1 mps 745 mmHg 86%
    07:00 +13°C° 0 mm 1 mps 745 mmHg 85%
    08:00 +15°C° 0 mm 1 mps 745 mmHg 78%
    09:00 +16°C° 0 mm 2 mps 745 mmHg 71%
    10:00 +18°C° 0 mm 2 mps 745 mmHg 65%
    11:00 +19°C° 0 mm 2 mps 745 mmHg 60%
    12:00 +20°C° 0 mm 2 mps 744 mmHg 56%
    13:00 +23°C° 0 mm 2 mps 744 mmHg 51%
    14:00 +21°C° 0 mm 2 mps 744 mmHg 55%
    15:00 +21°C° 0 mm 1 mps 744 mmHg 58%
    16:00 +20°C° 0 mm 1 mps 744 mmHg 62%
    17:00 +19°C° 0 mm 1 mps 744 mmHg 66%
    18:00 +17°C° 0 mm 2 mps 744 mmHg 70%
    19:00 +16°C° 0 mm 2 mps 744 mmHg 74%
    20:00 +16°C° 0 mm 2 mps 744 mmHg 76%
    21:00 +15°C° 0 mm 2 mps 743 mmHg 77%
    22:00 +15°C° 0 mm 2 mps 743 mmHg 79%
    23:00 +14°C° 0 mm 2 mps 743 mmHg 79%

    20 October, Sunday

    Time Temperature Precipitation Wind Pressure Humidity
    00:00 +14°C° 0 mm 2 mps 743 mmHg 80%
    01:00 +14°C° 0 mm 2 mps 742 mmHg 80%
    02:00 +13°C° 0 mm 3 mps 742 mmHg 78%
    03:00 +13°C° 0 mm 3 mps 742 mmHg 76%
    04:00 +13°C° 0 mm 3 mps 742 mmHg 74%
    05:00 +13°C° 0 mm 3 mps 742 mmHg 73%
    06:00 +13°C° 0 mm 4 mps 742 mmHg 73%
    07:00 +13°C° 0 mm 4 mps 742 mmHg 73%
    08:00 +15°C° 0 mm 4 mps 742 mmHg 65%
    09:00 +19°C° 0 mm 5 mps 742 mmHg 57%
    10:00 +21°C° 0 mm 5 mps 742 mmHg 50%
    11:00 +22°C° 0 mm 5 mps 741 mmHg 48%
    12:00 +22°C° 0 mm 5 mps 741 mmHg 45%
    13:00 +23°C° 0 mm 5 mps 741 mmHg 43%
    14:00 +22°C° 0 mm 5 mps 741 mmHg 47%
    15:00 +21°C° 0 mm 4 mps 741 mmHg 52%
    16:00 +20°C° 0 mm 4 mps 741 mmHg 56%
    17:00 +19°C° 0 mm 4 mps 741 mmHg 59%
    18:00 +17°C° 0 mm 3 mps 741 mmHg 61%
    19:00 +16°C° 0 mm 3 mps 742 mmHg 64%
    20:00 +16°C° 0 mm 3 mps 742 mmHg 66%
    21:00 +15°C° 0 mm 2 mps 742 mmHg 69%
    22:00 +15°C° 0 mm 2 mps 742 mmHg 71%
    23:00 +15°C° 0 mm 2 mps 742 mmHg 72%
    Show more